Weather History for Miles City, MT

Change the Weather History Date:

Tuesday, February 12, 2013

  Actual Average Record
Temperature  
Mean Temperature 35 °F 23 °F  
Max Temperature 46 °F 35 °F 57 °F (1987)
Min Temperature 23 °F 12 °F -18 °F (1949)
Degree Days  
Heating Degree Days 30 42  
Month to date heating degree days 383 513  
Since 1 July heating degree days 4663 5109  
Cooling Degree Days 0 0  
Month to date cooling degree days 0 0  
Year to date cooling degree days 0 0  
Moisture  
Dew Point 22 °F    
Average Humidity 56    
Maximum Humidity 74    
Minimum Humidity 38    
Precipitation  
Precipitation 0.00 in 0.01 in 0.53 in (1978)
Month to date precipitation T 0.08  
Year to date precipitation 0.18 0.40  
Sea Level Pressure  
Sea Level Pressure 29.98 in    
Wind  
Wind Speed 10 mph (West)    
Max Wind Speed 20 mph    
Max Gust Speed 23 mph    
Visibility 10 miles    
Events      
T = Trace of Precipitation, MM = Missing Value Source: NWS Daily Summary

Daily Weather History Graph

Daily Weather History Graph

Search for Another Location

Airport:

Trip Planner

Search our weather history database for the weather conditions in past years. The results will help you decide how hot, cold, wet, or windy it might be!

Date:

Astronomy

Feb. 12, 2013 Rise Set
Actual Time 7:11 AM MST 5:25 PM MST
Civil Twilight 6:39 AM MST 5:56 PM MST
Nautical Twilight 6:04 AM MST 6:31 PM MST
Astronomical Twilight 5:29 AM MST 7:06 PM MST
Moon 7:57 AM MST (2/12) 8:43 PM MST (2/12)
Length of Visible Light 11h 16m
Length of Day
10h 13m
Waxing Crescent, 8% of the Moon is Illuminated
Feb 12
Waxing Crescent
Feb 17
First Quarter
Feb 25
Full
Mar 4
Last Quarter
Mar 11
New

Hourly Weather History & Observations

Time (MST) Temp. Windchill Dew Point Humidity Pressure Visibility Wind Dir Wind Speed Gust Speed Precip Events Conditions
12:53 AM 26.1 °F 18.4 °F 18.0 °F 71% 30.00 in 10.0 mi West 6.9 mph - N/A   Partly Cloudy
1:53 AM 26.1 °F 20.5 °F 18.0 °F 71% 30.00 in 10.0 mi West 4.6 mph - N/A   Clear
2:53 AM 27.0 °F 18.0 °F 18.0 °F 69% 29.99 in 10.0 mi West 9.2 mph - N/A   Clear
3:53 AM 25.0 °F 15.5 °F 17.1 °F 72% 30.00 in 10.0 mi West 9.2 mph - N/A   Clear
4:53 AM 24.1 °F 18.2 °F 17.1 °F 75% 30.02 in 10.0 mi SSW 4.6 mph - N/A   Clear
5:53 AM 25.0 °F 17.1 °F 17.1 °F 72% 30.04 in 10.0 mi WSW 6.9 mph - N/A   Clear
6:53 AM 27.0 °F 18.0 °F 18.0 °F 69% 30.04 in 10.0 mi SW 9.2 mph - N/A   Overcast
7:53 AM 28.9 °F 21.9 °F 18.0 °F 64% 30.05 in 10.0 mi WSW 6.9 mph - N/A   Overcast
8:53 AM 32.0 °F 21.6 °F 18.0 °F 56% 30.05 in 10.0 mi West 15.0 mph - N/A   Mostly Cloudy
9:53 AM 35.1 °F 26.9 °F 19.0 °F 52% 30.06 in 10.0 mi West 11.5 mph - N/A   Mostly Cloudy
10:53 AM 37.9 °F 30.5 °F 19.9 °F 48% 30.04 in 10.0 mi WSW 11.5 mph - N/A   Clear
11:53 AM 41.0 °F 32.2 °F 19.9 °F 43% 30.02 in 10.0 mi West 18.4 mph - N/A   Partly Cloudy
12:53 PM 43.0 °F 35.7 °F 21.0 °F 42% 30.01 in 10.0 mi WNW 15.0 mph 20.7 mph N/A   Partly Cloudy
1:53 PM 46.0 °F 39.3 °F 23.0 °F 40% 29.97 in 10.0 mi West 16.1 mph - N/A   Overcast
2:53 PM 45.0 °F 38.9 °F 23.0 °F 42% 29.96 in 10.0 mi West 12.7 mph - N/A   Clear
3:53 PM 44.1 °F 39.0 °F 24.1 °F 45% 29.95 in 10.0 mi West 9.2 mph - N/A   Partly Cloudy
4:53 PM 42.1 °F 37.1 °F 26.1 °F 53% 29.95 in 10.0 mi WNW 8.1 mph - N/A   Mostly Cloudy
5:53 PM 37.9 °F 32.7 °F 26.1 °F 62% 29.97 in 10.0 mi West 6.9 mph - N/A   Overcast
6:53 PM 36.0 °F 33.3 °F 27.0 °F 70% 29.97 in 10.0 mi WNW 3.5 mph - N/A   Mostly Cloudy
7:53 PM 37.9 °F 32.1 °F 27.0 °F 65% 29.94 in 10.0 mi West 8.1 mph - N/A   Overcast
8:53 PM 37.9 °F 32.7 °F 26.1 °F 62% 29.91 in 10.0 mi WSW 6.9 mph - N/A   Overcast
9:53 PM 37.0 °F 29.8 °F 26.1 °F 65% 29.88 in 10.0 mi SW 10.4 mph - N/A   Overcast
10:53 PM 36.0 °F 27.5 °F 26.1 °F 67% 29.86 in 10.0 mi SW 12.7 mph - N/A   Clear
11:53 PM 36.0 °F 29.6 °F 25.0 °F 64% 29.85 in 10.0 mi WSW 8.1 mph - N/A   Clear